Volver al catálogo

KUIPER-00078

ActivoComunicacionesLEO
NORAD 64825·PAYLOAD·🇺🇸 United States

Lanzado Jul 16, 2025 desde Cape Canaveral Space Force Station

Loading…

Próximos Pases (próximas 24 horas)

TLE

ActualizadoSource: CelesTrak SupGP

Época: Sep 15, 2026, 04:15 UTC

1 64825C 25151K   26258.17721065  .00006514  00000+0  85273-3 0  2582
2 64825  51.8990 177.6816 0001064  84.3211  45.4465 14.79924146    11

Sigue KUIPER-00078 en tiempo real con AllMySat

Download on the App Store